This is the latest recevied weather packets stored in our database for station/object FW0690. If no packets are shown the sender has not sent any weather packets the latest 10 day(s).
| Time | Temp. | Humidity | Pressure | Rain* | Wind** | Luminosity | Snow |
|---|---|---|---|---|---|---|---|
| 1777810836 | 17.78° C | 26% | 1019.5 hPa | - | - | 48 W/m² | - |
| 1777810476 | 17.22° C | 25% | 1019.5 hPa | - | - | 29 W/m² | - |
| 1777810116 | 17.78° C | 24% | 1019.5 hPa | - | - | 33 W/m² | - |
| 1777809756 | 17.78° C | 24% | 1019.6 hPa | - | - | 38 W/m² | - |
| 1777809396 | 20° C | 24% | 1019.6 hPa | - | - | 44 W/m² | - |
| 1777809036 | 20° C | 25% | 1019.6 hPa | - | - | 42 W/m² | - |
| 1777808676 | 18.33° C | 25% | 1019.7 hPa | - | - | 43 W/m² | - |
| 1777808316 | 18.33° C | 25% | 1019.8 hPa | - | - | 38 W/m² | - |
| 1777807956 | 19.44° C | 25% | 1019.8 hPa | - | - | 40 W/m² | - |
| 1777807596 | 20° C | 25% | 1019.9 hPa | - | - | 35 W/m² | - |
| 1777807236 | 17.78° C | 25% | 1020 hPa | - | - | 35 W/m² | - |
| 1777806876 | 17.78° C | 25% | 1020.1 hPa | - | - | 33 W/m² | - |
| 1777806516 | 19.44° C | 24% | 1020.1 hPa | - | - | 36 W/m² | - |
| 1777806156 | 19.44° C | 25% | 1020.2 hPa | - | - | 37 W/m² | - |
| 1777805796 | 20.56° C | 25% | 1020.3 hPa | - | - | 41 W/m² | - |
| 1777805436 | 20° C | 25% | 1020.3 hPa | - | - | 34 W/m² | - |
| 1777805076 | 20.56° C | 26% | 1020.4 hPa | - | - | 41 W/m² | - |
| 1777804716 | 20.56° C | 26% | 1020.5 hPa | - | - | 39 W/m² | - |
| 1777804356 | 19.44° C | 26% | 1020.5 hPa | - | - | 37 W/m² | - |
| 1777803996 | 16.67° C | 26% | 1020.6 hPa | - | - | 43 W/m² | - |
| 1777803636 | 17.78° C | 25% | 1020.7 hPa | - | - | 35 W/m² | - |
| 1777803276 | 19.44° C | 25% | 1020.7 hPa | - | - | 38 W/m² | - |
| 1777802916 | 18.89° C | 25% | 1020.8 hPa | - | - | 142 W/m² | - |
| 1777802556 | 17.78° C | 24% | 1020.9 hPa | - | - | 121 W/m² | - |
| 1777802196 | 20.56° C | 25% | 1020.9 hPa | - | - | 180 W/m² | - |
* Rain since midnight (hover to see other rain measurements)
** Current wind speed in m/s (hover to see current wind gust speed)